User: anonymous
Location: Hepcat Sky Observatory
(29.9800°N, 95.6500°W)
Time: 16:20:12
(UTC-05:00)
Language:

Cosmos 1602 Rocket - Orbit

View from above orbital plane
View from above orbital plane
View from above satellite
View from above satellite

Ground track
Ground track

The orbit data is extracted from the following two-line orbital elements,

1 15332U 84105B   14245.48263604  .00000280  00000-0  31579-4 0  7358
2 15332 082.5328 060.0307 0022881 127.4361 287.9310 14.82765769615596
Epoch (UTC): 02 September 2014 11:34:59
Eccentricity: 0.0022881
inclination: 82.5328°
perigee height: 604 km
apogee height: 636 km
right ascension of ascending node: 60.0307°
argument of perigee: 127.4361°
revolutions per day: 14.82765769
mean anomaly at epoch: 287.9310°
orbit number at epoch: 61559

The dashed part of the orbit path shows where the satellite is in the earth's shadow,  

DLR